Погода в Новом Аксубаево

Россия / Республика Татарстан     54°50′08″N   50°54′10″E
темп.,
°C
ветер,
м/с
пор.,
м/с
влажн.,
%
обл.,
%
осадки,
мм/ч
давл.,
гПа
погр.,
м
15 апреля, чт
чт1500:00+10ююв39895 0.0 1024147
03:00+8ююв34840 0.0 102450
06:00+9юв36750 0.0 1023116
09:00+15ююв56570 0.0 1022394
12:00+19ю46432 0.0 1021876
15:00+20ю56381 0.0 10201238
18:00+17ююз225250 0.0 101813
21:00+13ю22594 0.0 101910
16 апреля, пт
пт1600:00+11ю22658 0.0 101910
03:00+10ююв00686 0.0 101910
06:00+10св367621 0.0 1020113
09:00+12всв787756 0.0 1022498
12:00+14всв666772 0.0 1022678
15:00+16всв665610 0.0 10221096
18:00+12всв6106710 0.0 1023465
21:00+10св612775 0.0 1024364
17 апреля, сб
сб1700:00+8всв5118279 0.0 1024401
03:00+6св511875 0.0 1025326
06:00+5св511765 0.0 1025329
09:00+9св78525 0.0 1026627
12:00+12св67380 0.0 10251044
15:00+13св67340 0.0 10241192
18:00+10св48440 0.0 1024229
21:00+7св48590 0.0 1025157
18 апреля, вс
вс1800:00+5св410630 0.0 1024181
03:00+4св35680 0.0 102471
06:00+4св38685 0.0 1024219
09:00+10всв56505 0.0 1024848
12:00+12всв56388 0.0 10231466
15:00+13св673910 0.0 10231556
18:00+9всв8126215 0.0 1024674
21:00+6всв7125914 0.0 1026705
19 апреля, пн
пн1900:00+4всв6124779 0.0 1027548
03:00+2всв71257100 0.0 1028556
06:00+1всв81461100 0.0 1029617
09:00+4всв91151100 0.0 10301025
12:00+6в81042100 0.0 10301472
15:00+7в81034100 0.0 10301682
18:00+5в711363 0.0 1031825
21:00+3всв614390 0.0 1032534